GFSNW_prec_cloud_030.txt.gz
Cloud_Cover
100 100 100 69 100 61 0 0 2 5 5 16 46 100 100 53 5 9 5 7 66 25 30 56 80 100 100 100 100 100 100 100 100 100 100 100 100 100 99 100 100 100 98 93
94 100 100 56 100 86 59 0 0 0 3 69 100 98 95 71 5 5 5 7 8 49 69 96 100 100 100 100 100 100 100 99 100 100 100 100 100 100 99 99 100 89 28 57
97 99 100 100 100 100 3 0 2 0 0 5 72 93 6 6 5 5 5 5 34 36 29 86 100 100 100 86 94 100 100 100 100 100 100 93 97 100 100 100 100 88 96 78
100 100 100 100 40 100 48 16 93 97 72 3 5 5 5 5 5 5 5 5 5 16 19 26 86 98 100 92 91 100 100 100 100 100 100 100 100 100 100 100 98 90 99 100
100 100 100 100 78 100 100 42 96 98 100 7 0 0 5 5 5 5 5 5 5 5 97 100 65 100 62 79 69 100 100 100 100 100 86 82 99 100 100 99 90 100 100 100
89 100 100 100 100 100 100 100 98 97 38 5 1 0 0 5 5 5 5 18 34 56 68 70 98 100 100 92 87 100 100 100 100 100 100 98 100 100 99 84 100 100 100 100
64 100 100 100 100 100 100 100 100 100 69 12 5 5 4 0 5 5 5 24 100 100 70 57 81 100 100 100 74 52 100 100 100 100 100 100 100 100 100 100 100 100 100 100
97 100 100 100 100 100 100 100 73 94 100 67 5 42 5 5 1 5 15 40 100 85 86 98 97 100 95 88 100 100 100 100 100 100 100 100 100 100 100 100 100 100 100 100
100 100 100 100 100 100 100 100 100 100 89 18 99 100 31 6 5 5 3 14 88 100 98 100 100 78 99 55 100 100 100 100 90 98 100 100 100 100 100 100 100 100 74 64
100 100 100 100 100 100 100 100 100 100 100 32 29 91 97 96 18 5 5 5 8 66 100 100 99 99 54 76 57 100 100 100 94 100 100 100 100 100 100 100 100 100 44 61
100 100 100 100 100 100 100 100 100 100 100 90 78 100 96 100 100 81 8 5 6 5 46 86 100 72 70 62 37 34 54 99 100 100 99 87 97 100 100 99 97 90 6 7
100 100 100 100 100 100 100 100 100 100 100 100 100 100 100 98 90 100 100 51 5 5 8 83 93 100 12 48 66 27 14 6 93 73 84 72 73 90 86 96 83 76 5 5
100 100 100 100 100 100 100 100 100 100 100 100 100 100 4 5 5 45 99 100 100 19 5 17 89 91 81 32 64 54 6 6 26 100 23 99 93 98 100 100 95 33 5 5
100 100 100 100 100 100 100 100 100 100 100 100 86 59 99 4 3 5 76 99 100 100 76 96 74 35 6 37 36 47 44 89 90 88 68 100 100 100 100 100 100 100 69 9
100 100 100 100 100 100 100 100 100 99 99 86 65 15 0 1 5 74 41 97 100 100 100 96 59 18 30 6 70 33 88 100 100 100 71 100 98 100 100 30 23 8 8 29
100 100 100 100 100 100 100 100 97 13 100 100 88 28 4 2 0 2 48 100 100 100 100 94 44 21 53 8 100 85 100 100 100 100 86 100 100 100 61 67 16 10 64 16
100 100 100 100 100 100 100 98 17 35 66 99 59 70 93 82 3 3 7 100 100 100 100 97 6 71 5 39 76 97 100 100 100 100 83 92 99 54 30 75 62 15 38 33
100 100 100 100 100 100 99 84 75 69 97 100 94 100 100 20 29 38 100 100 100 100 100 100 30 56 40 80 40 56 100 100 100 100 99 56 38 76 99 50 54 7 11 70
100 100 100 100 100 98 68 89 100 97 100 100 97 100 100 100 96 100 100 100 100 100 100 100 63 91 97 18 17 29 100 100 100 100 99 100 64 99 82 100 62 39 26 100
100 100 100 100 100 99 74 100 100 100 100 100 100 100 100 100 100 100 100 100 100 100 100 100 100 87 30 5 5 5 46 100 100 80 87 81 78 92 96 81 100 76 27 12
100 100 100 93 99 92 100 100 100 88 100 100 100 100 100 100 100 100 100 99 100 100 100 100 100 100 98 13 56 61 28 82 100 96 89 97 84 100 100 100 82 72 75 18
100 100 100 100 100 100 100 100 100 100 100 100 100 100 100 100 100 100 97 100 100 100 100 100 100 100 84 80 96 80 48 59 100 98 100 100 100 100 100 99 100 100 96 53
100 100 100 100 100 100 100 100 98 100 100 100 100 100 100 100 100 100 100 95 100 100 100 100 100 93 49 93 100 99 99 88 89 100 100 100 100 100 95 100 100 100 100 100
100 100 100 100 100 100 100 100 100 100 100 100 100 100 100 100 100 100 100 100 100 100 100 84 78 100 100 100 100 100 100 100 100 100 100 100 100 100 100 100 100 99 100 100
100 100 100 100 100 100 100 100 100 100 100 100 100 100 100 100 99 100 93 100 100 98 79 75 95 100 100 100 100 100 100 100 100 100 100 100 100 100 100 100 100 100 100 100
99 100 100 100 100 100 100 100 100 100 100 100 100 100 100 100 99 100 100 100 92 70 89 98 100 100 100 100 100 100 100 100 100 100 100 100 100 100 100 100 100 100 100 100
99 100 100 100 100 100 100 100 100 100 100 100 100 100 100 96 99 100 100 100 61 99 100 100 100 100 100 100 100 100 100 100 100 100 100 100 100 100 100 100 100 100 100 100

GFSNW_prec_cloud_033.txt.gz
Cloud_Cover
8 85 100 97 79 100 9 0 0 0 3 5 20 78 63 62 35 5 5 5 11 55 71 99 100 100 99 100 100 100 100 100 100 100 100 75 100 100 100 100 100 100 25 5
5 15 100 100 76 73 100 5 0 0 0 24 100 100 91 59 5 5 5 5 13 30 5 12 29 100 100 100 100 100 100 100 100 100 100 100 100 91 100 100 100 100 100 52
58 5 28 100 100 55 68 52 4 0 0 0 4 4 19 5 5 5 5 5 5 5 5 19 70 98 96 100 100 100 100 100 100 100 100 100 100 100 100 100 100 100 91 69
15 5 8 79 100 100 94 100 88 95 72 3 1 2 5 5 4 4 5 5 5 5 5 6 27 24 98 100 100 100 100 100 100 100 100 100 100 100 100 100 100 100 100 100
76 5 5 94 100 100 93 100 88 93 100 34 3 2 5 5 5 4 5 5 5 5 5 7 5 5 29 59 100 100 100 100 100 100 100 100 100 100 100 100 100 100 100 100
72 5 5 43 92 98 100 100 100 100 91 5 4 3 4 5 4 2 4 5 5 7 8 24 26 5 51 86 97 100 100 100 100 100 100 100 100 100 100 100 100 100 90 100
100 10 90 56 100 100 100 100 100 100 76 13 8 5 5 5 5 4 5 5 5 42 91 87 24 45 76 65 42 65 100 100 100 95 76 81 74 100 100 100 100 100 100 100
100 91 100 95 100 100 100 100 100 100 100 100 17 48 52 5 5 5 5 5 5 38 84 88 88 62 77 87 100 100 100 100 96 100 95 74 46 100 72 70 81 100 100 100
99 100 100 100 100 100 100 100 100 100 100 100 71 62 100 47 5 5 5 5 5 5 98 99 94 85 63 76 100 100 100 100 99 100 98 56 66 100 100 100 100 100 100 100
100 100 100 100 100 100 100 100 100 100 100 98 84 100 48 91 100 100 82 5 5 10 28 100 100 88 83 71 93 100 96 100 100 99 96 35 6 100 100 100 100 100 100 100
100 100 100 100 100 100 100 100 99 100 100 100 100 100 100 100 100 100 100 96 72 56 88 98 96 97 92 75 21 100 97 100 100 99 100 100 45 98 95 100 100 100 100 100
100 100 100 100 100 100 100 99 100 100 100 100 100 100 100 100 100 100 100 100 93 60 97 28 18 85 96 97 66 6 59 96 98 78 45 40 96 100 100 100 100 100 100 100
100 100 100 100 100 100 100 99 96 100 100 100 100 100 100 100 100 100 100 100 100 100 96 97 39 5 90 99 99 51 71 73 98 64 49 27 92 100 100 100 100 99 98 100
100 100 100 100 100 100 100 100 100 100 94 100 100 100 100 100 100 82 79 99 100 100 100 69 69 7 5 53 85 82 58 96 55 46 73 34 67 38 91 100 62 66 78 69
100 100 100 100 100 100 100 100 100 100 100 100 100 96 71 18 11 14 5 0 83 100 100 100 100 50 5 13 84 98 82 100 100 99 29 95 84 16 100 100 83 97 97 86
100 100 100 100 100 100 100 100 100 100 100 100 91 12 5 6 45 5 5 5 52 100 100 100 98 79 5 5 37 82 100 100 100 100 76 16 98 100 100 100 30 24 32 9
100 100 100 100 100 100 100 100 100 100 95 100 73 5 5 90 40 23 30 15 83 100 100 100 100 100 75 5 9 5 89 100 100 100 98 56 99 100 100 100 54 10 83 100
100 100 100 100 100 100 76 100 100 100 100 100 100 51 75 71 96 28 4 68 99 100 100 100 100 100 59 27 3 3 82 100 100 100 99 87 100 98 94 99 93 59 28 94
100 100 100 100 100 100 100 100 100 100 100 92 82 99 100 100 100 53 81 85 100 100 100 100 100 100 98 100 18 5 22 93 100 100 100 99 65 100 52 64 70 100 77 99
100 100 100 100 100 100 100 100 100 100 100 100 100 100 100 100 100 100 100 100 100 100 100 100 100 100 100 100 12 5 5 17 99 100 100 100 62 98 98 46 35 86 100 100
100 100 100 100 100 100 100 100 100 100 99 100 100 100 100 100 100 99 100 100 100 100 100 100 100 100 48 25 5 5 5 6 72 100 100 100 100 100 92 92 85 86 88 100
100 100 100 100 100 100 100 100 100 100 100 100 100 100 100 100 100 90 86 99 100 100 100 100 100 97 34 56 47 7 5 5 5 64 100 100 100 100 100 100 100 100 100 100
100 100 100 100 100 100 100 100 100 100 100 100 100 100 100 100 100 100 100 100 100 100 100 100 88 29 42 39 5 36 67 76 98 36 100 100 100 100 100 100 100 100 100 100
100 100 100 100 100 100 100 100 100 100 100 100 100 100 100 100 100 100 98 100 100 100 100 100 99 46 44 39 49 92 100 100 97 67 83 100 100 100 100 100 100 100 100 100
100 100 100 100 100 100 100 100 100 100 100 100 100 100 100 100 100 100 100 100 98 94 100 100 100 100 100 100 100 100 100 100 100 100 100 100 100 100 100 100 100 100 100 100
93 100 100 100 100 100 100 100 100 100 100 100 100 100 100 100 100 100 98 100 100 90 100 100 100 100 100 100 100 100 100 100 100 100 100 100 100 100 100 100 100 100 100 100
91 100 100 98 100 100 100 100 100 100 100 100 100 100 100 100 98 96 100 100 100 87 100 100 100 100 100 100 100 100 100 100 100 100 100 100 100 100 100 100 100 100 100 100

GFSNW_prec_cloud_036.txt.gz
Cloud_Cover
19 100 54 100 62 100 91 0 12 0 0 8 8 96 100 100 29 5 5 5 25 8 5 5 5 6 79 100 100 100 100 100 100 100 95 98 100 100 100 100 100 100 100 99
5 5 5 5 39 52 100 19 2 0 0 4 5 5 5 49 5 5 5 5 5 5 30 43 64 100 95 18 98 100 100 100 100 100 100 100 12 48 100 98 80 100 100 33
7 4 2 5 10 89 63 100 97 0 0 0 0 3 1 1 0 0 0 5 5 5 5 5 53 60 100 100 100 100 100 100 100 100 99 100 100 94 77 97 100 76 32 83
6 5 5 4 5 80 100 100 97 93 8 0 0 1 4 5 2 0 5 5 5 5 5 5 43 59 100 100 100 100 100 100 100 100 71 53 99 100 100 100 81 100 100 98
5 5 5 5 8 60 90 100 100 100 100 90 3 2 5 5 5 4 0 5 5 5 5 5 5 76 99 100 100 100 100 100 100 100 100 100 100 100 100 100 100 67 92 100
10 15 11 5 22 93 100 95 99 100 100 42 4 2 3 5 5 1 0 4 5 5 23 23 20 10 18 93 94 100 100 100 100 100 100 100 100 100 100 100 100 100 100 100
33 70 98 24 73 100 100 100 100 100 98 98 42 5 5 5 5 3 5 5 5 5 5 18 79 100 41 44 99 100 88 100 99 100 100 100 100 100 100 100 100 100 100 100
64 60 99 100 98 100 100 100 100 100 100 100 78 96 38 12 5 5 5 5 5 5 28 99 81 70 87 80 100 94 98 95 64 76 75 100 100 100 100 100 100 100 100 100
100 6 52 98 92 100 100 100 100 100 100 100 100 100 78 71 13 5 5 5 5 5 32 100 100 100 100 99 93 94 100 100 76 80 95 58 48 58 14 78 100 100 100 100
79 38 23 100 100 100 100 100 100 100 100 100 100 100 92 100 100 100 78 37 21 22 16 79 100 100 100 100 100 100 79 91 89 96 100 78 87 95 71 94 89 96 100 100
95 96 54 99 100 100 100 100 100 100 100 81 93 100 100 100 100 100 100 100 78 99 98 96 100 67 92 100 100 89 100 99 91 89 98 97 76 82 96 100 98 100 100 100
57 73 99 99 100 100 100 86 100 100 100 98 94 100 100 100 100 100 100 100 100 94 98 81 85 10 5 38 100 89 90 100 100 100 98 75 98 88 100 100 100 100 100 100
90 100 100 99 100 100 100 100 100 99 100 100 100 100 100 100 100 100 100 100 100 100 100 100 100 29 78 5 13 70 99 100 100 100 95 58 74 52 79 100 100 100 98 100
93 100 100 95 100 100 100 100 100 100 100 100 100 100 100 100 100 100 100 100 100 100 100 100 93 100 100 95 7 19 96 100 100 100 83 99 64 52 68 85 100 100 100 100
100 100 100 100 100 100 100 100 100 100 100 100 100 100 100 100 100 100 100 100 100 100 100 100 100 72 59 100 47 5 68 98 100 99 43 94 56 40 20 9 65 100 93 88
100 100 100 100 100 100 100 100 100 100 100 100 100 100 100 100 100 94 80 86 52 74 92 83 100 95 100 31 100 39 5 85 100 100 42 30 65 22 5 6 5 26 93 59
100 100 100 100 100 100 100 100 100 100 100 100 100 94 97 90 43 40 68 75 99 97 93 68 100 100 100 92 100 97 1 18 98 100 74 26 65 13 22 100 6 14 56 50
100 100 100 100 100 100 100 100 100 93 100 100 100 42 61 96 64 81 38 95 95 84 78 100 100 100 100 100 100 99 4 4 5 15 88 32 35 5 5 100 26 8 49 47
100 100 100 100 100 100 100 100 100 100 100 93 93 91 96 100 98 99 60 9 31 76 100 94 100 100 100 100 100 100 6 4 5 8 86 100 18 5 5 45 99 59 65 67
100 100 100 100 100 100 100 100 100 100 100 100 97 96 100 100 100 100 100 100 100 100 100 100 100 100 100 100 100 100 37 5 5 12 92 100 100 69 62 34 100 100 100 92
100 100 100 100 100 100 100 100 100 100 100 100 100 100 100 100 100 100 100 100 100 100 100 100 100 100 100 100 100 100 91 5 5 5 12 72 92 82 99 100 100 100 86 59
90 100 100 100 100 100 100 100 100 100 100 100 100 100 100 100 100 100 100 100 100 100 100 100 100 100 100 100 100 100 83 5 5 5 100 100 100 100 100 100 100 100 98 77
5 82 100 100 100 100 100 100 100 100 100 99 100 100 100 100 100 100 100 100 100 100 100 100 100 100 100 100 100 82 8 21 59 28 94 95 83 100 100 100 100 100 100 100
5 6 82 100 100 100 100 100 100 100 100 100 100 100 100 100 100 100 100 100 100 100 100 100 91 35 24 32 25 8 55 68 24 21 62 28 98 100 100 100 100 100 100 100
9 39 18 95 100 100 100 100 100 100 100 100 100 100 100 100 100 100 100 100 99 98 100 100 100 79 100 89 8 88 99 81 89 100 98 100 100 100 100 100 100 100 100 100
8 36 57 100 100 100 100 100 100 100 100 100 100 100 100 100 100 100 100 100 95 100 100 100 100 100 100 100 99 99 100 100 100 100 100 100 100 100 100 100 100 100 100 100
91 11 20 100 100 100 100 100 100 100 100 100 100 100 84 96 100 100 100 100 86 100 100 100 100 100 100 100 100 100 100 100 100 100 100 100 100 100 100 100 100 100 100 100

GFSNW_prec_cloud_039.txt.gz
Cloud_Cover
11 0 0 0 1 98 5 81 58 4 0 43 34 17 5 5 5 0 5 16 98 93 100 100 98 98 96 100 65 91 100 96 100 100 100 100 100 100 100 100 100 100 100 100
7 0 0 0 0 4 99 8 100 72 1 83 56 3 5 3 1 4 5 5 31 57 38 30 49 78 42 99 100 100 97 100 100 87 98 100 100 100 100 100 100 100 96 100
30 3 0 0 0 0 71 66 69 77 5 0 19 5 5 5 0 0 0 3 5 5 5 5 11 5 5 7 95 100 100 68 72 35 89 44 100 100 100 100 100 100 100 100
5 5 5 4 0 0 55 96 90 99 91 6 2 2 3 5 6 1 2 6 5 5 5 5 5 20 97 55 43 47 100 100 100 100 91 18 100 68 88 100 100 100 100 100
6 5 5 2 0 0 5 100 98 98 100 10 46 3 12 5 12 1 10 4 5 5 55 5 5 5 16 100 100 100 85 98 100 100 100 52 10 100 100 100 67 100 95 100
5 5 5 5 4 3 4 83 100 99 98 93 59 36 39 46 5 6 0 4 17 15 63 5 5 12 5 50 100 100 94 100 48 99 85 100 100 100 100 100 100 88 100 100
5 5 7 5 5 5 5 59 100 100 69 100 100 33 14 5 34 45 4 4 62 6 5 5 5 5 12 6 59 90 96 100 90 86 74 64 100 100 100 100 100 100 99 100
5 5 5 5 5 5 5 93 100 100 100 100 100 100 67 30 5 10 7 8 7 5 5 54 100 98 94 72 48 98 99 85 100 100 99 100 65 100 100 100 100 100 99 100
5 5 5 6 30 70 42 6 68 100 100 100 100 100 100 100 100 71 22 9 5 5 39 34 100 99 100 100 100 100 88 100 82 100 88 95 100 100 100 100 100 100 100 100
5 61 5 7 18 62 97 86 49 100 100 100 100 100 100 100 100 100 99 98 62 25 51 99 94 100 69 100 100 100 100 98 94 100 97 99 95 98 80 100 100 100 100 100
5 18 6 19 16 64 87 100 96 100 100 100 100 100 100 100 100 100 100 84 70 100 64 100 88 75 56 94 100 100 100 100 100 100 100 78 100 99 67 84 49 91 100 100
6 50 89 79 88 100 100 100 100 100 100 100 100 100 100 100 100 100 100 100 100 99 100 100 100 87 78 11 89 100 100 100 100 100 100 99 99 86 76 65 100 100 93 100
5 6 12 49 69 85 100 100 100 100 100 100 100 100 100 100 100 100 100 100 100 100 100 100 100 100 98 86 11 27 99 100 100 100 100 100 100 100 100 100 100 100 100 100
11 21 89 100 86 100 100 90 100 100 71 79 98 100 100 100 100 100 100 100 100 100 100 100 100 99 88 66 91 54 31 83 100 100 100 100 100 67 77 88 100 100 100 100
26 77 95 70 100 93 100 100 100 100 99 100 100 100 100 100 100 100 100 100 100 100 100 100 100 100 100 100 83 5 100 40 21 38 59 100 100 100 75 61 58 79 100 100
10 98 100 100 100 76 99 100 100 100 100 100 100 100 100 100 100 100 100 100 81 100 100 100 100 100 100 100 100 73 78 5 13 14 5 57 100 100 100 65 41 25 99 100
17 100 100 100 100 97 94 100 100 100 100 100 98 100 100 100 100 100 100 81 96 99 100 86 77 96 100 100 100 100 100 61 13 5 5 5 50 95 100 73 14 18 45 90
17 24 96 100 100 100 100 100 100 100 100 100 100 100 100 98 100 91 78 99 100 80 83 94 69 43 100 100 100 100 100 98 87 5 5 5 5 77 100 100 76 67 86 57
24 5 100 100 100 100 100 100 100 100 100 100 100 100 100 99 100 92 64 65 90 64 90 93 99 99 100 100 100 81 100 100 100 23 5 5 5 6 89 100 100 56 59 40
5 5 96 100 96 100 100 100 100 100 100 100 100 100 100 100 100 100 90 100 100 100 44 96 100 100 100 100 100 100 100 100 100 97 5 5 5 5 25 100 100 100 49 99
49 78 49 100 97 100 100 100 100 100 100 100 100 100 100 100 100 100 100 100 100 100 100 100 100 100 100 100 100 100 100 100 100 100 68 5 13 51 68 99 100 100 68 92
57 90 29 88 100 100 100 100 100 100 100 100 100 100 100 100 100 100 100 100 100 100 100 100 100 100 100 100 100 100 100 100 100 100 99 38 100 100 100 100 100 99 99 66
28 88 77 63 96 100 100 100 100 100 100 100 100 100 100 100 100 100 100 100 99 100 100 100 100 100 100 100 100 100 100 100 100 100 85 53 33 84 95 100 100 100 100 100
5 5 0 12 10 100 100 100 100 100 100 100 100 100 100 100 100 100 100 100 100 100 100 99 100 100 100 100 100 100 100 100 100 95 88 5 6 52 86 98 100 98 100 100
5 5 0 2 6 5 100 100 100 100 100 100 100 100 100 100 100 100 100 99 99 100 100 100 100 99 99 100 100 100 94 100 96 89 85 65 90 100 100 100 100 100 100 100
14 12 5 3 5 5 10 100 100 100 99 100 100 100 100 100 100 100 100 100 100 100 100 100 100 100 100 99 95 96 100 100 98 100 76 90 67 98 100 100 100 100 100 100
22 5 5 5 5 5 5 9 99 100 100 100 100 100 100 100 100 99 100 100 100 100 100 100 100 100 100 100 100 100 100 100 100 100 100 100 100 100 100 100 100 100 100 100

GFSNW_prec_cloud_045.txt.gz
Cloud_Cover
12 0 0 22 0 0 0 2 53 2 5 81 91 6 5 2 1 0 1 5 43 41 100 99 50 96 90 100 100 100 100 100 98 100 100 100 100 100 100 100 94 100 100 99
0 4 0 0 0 18 92 40 2 5 36 73 100 8 5 5 3 4 5 5 1 5 5 40 54 100 98 98 82 89 58 54 89 96 100 100 100 100 100 100 100 100 100 100
2 0 0 0 0 0 2 36 47 36 18 100 99 93 5 4 1 0 0 5 5 5 5 5 6 13 44 99 100 100 100 70 57 15 100 60 100 100 100 91 100 100 100 100
0 0 0 0 0 0 0 2 60 13 100 60 100 100 84 5 19 4 0 2 4 5 5 5 5 25 18 51 54 79 98 79 40 100 89 92 96 100 100 100 100 100 100 98
1 6 17 0 0 0 0 4 10 6 58 7 49 96 100 16 100 7 83 4 5 5 5 5 5 5 18 5 48 57 74 97 100 100 95 97 15 97 100 100 100 100 100 100
4 2 0 0 0 0 0 0 5 20 5 94 51 100 100 100 60 44 5 8 34 5 40 89 21 5 5 5 9 53 24 13 6 43 86 60 92 92 41 100 100 97 100 100
3 0 0 0 3 4 1 5 7 5 21 24 89 100 100 100 100 78 5 23 100 69 77 5 5 5 5 5 5 53 99 98 60 100 99 86 100 14 5 5 9 85 100 100
0 0 3 5 5 5 5 4 5 5 32 28 78 98 92 100 100 99 12 6 59 32 5 5 25 5 10 36 41 100 100 100 99 95 98 100 100 100 100 91 19 33 100 100
3 5 5 5 5 5 5 5 5 5 7 41 93 85 100 100 100 100 96 70 38 5 50 53 100 99 80 81 77 62 96 98 99 100 100 100 99 22 58 100 100 99 98 100
5 5 5 5 5 12 5 48 77 14 7 22 28 88 100 100 74 100 100 100 100 79 5 80 100 95 53 37 13 67 85 100 75 57 100 100 83 54 97 100 100 100 94 100
10 5 5 5 5 5 6 79 79 74 68 48 56 32 92 100 80 100 100 100 100 100 98 100 99 83 36 5 5 6 77 100 58 70 98 92 86 78 100 95 68 90 100 100
100 82 5 34 5 12 9 69 100 100 100 15 36 50 62 100 100 84 95 100 100 100 100 100 100 100 87 20 68 5 47 17 99 100 93 60 82 56 72 100 100 100 97 100
35 11 9 6 10 21 55 99 40 86 97 61 98 95 100 100 100 100 100 100 100 100 100 100 100 100 94 72 99 50 52 5 7 39 99 73 100 38 56 46 32 90 99 100
5 5 5 46 49 8 10 77 80 92 92 99 100 100 100 100 100 100 100 100 100 100 100 100 100 99 99 92 72 43 97 62 100 88 12 71 93 98 82 57 9 5 7 30
5 5 11 71 6 5 5 30 51 55 45 98 100 100 100 100 100 100 100 100 100 100 100 100 100 100 100 100 89 72 90 100 99 100 73 90 79 100 30 61 52 8 21 5
5 5 98 5 5 2 7 44 29 5 9 45 100 100 100 100 100 100 100 100 100 100 100 100 100 100 97 63 71 99 99 100 100 61 95 100 100 100 54 71 24 26 38 16
9 10 5 5 2 5 5 28 100 82 58 94 99 100 100 100 100 100 100 100 100 100 100 100 100 100 99 54 28 100 80 98 58 77 100 93 100 100 78 61 93 82 86 60
5 5 5 5 5 7 8 8 97 100 90 88 100 100 100 100 100 100 100 100 100 100 100 100 87 6 51 9 13 25 97 100 89 100 100 89 71 100 100 91 27 81 80 98
5 5 5 4 3 38 61 56 96 100 100 100 100 100 100 100 100 100 100 100 100 100 44 16 21 31 91 77 3 0 98 100 100 100 100 100 100 97 100 100 62 83 33 57
5 5 5 8 5 5 23 100 100 99 100 100 100 100 100 100 100 100 100 100 100 91 5 52 69 68 94 29 63 96 99 100 100 100 100 100 100 100 100 100 100 82 6 6
5 5 16 5 5 44 61 97 47 99 58 90 93 100 100 100 100 100 100 100 98 89 74 88 74 100 100 99 100 100 100 100 100 91 98 100 100 100 100 100 99 90 100 100
17 13 5 11 50 65 35 63 57 29 100 99 97 100 100 100 100 100 100 100 100 89 100 99 100 100 100 100 100 100 100 100 100 100 100 100 100 100 100 100 100 100 100 100
6 5 6 5 6 2 4 5 5 6 22 88 99 86 100 100 100 100 100 100 100 100 100 100 100 99 100 100 100 100 100 100 100 100 100 100 100 100 100 100 100 100 100 68
6 12 6 21 23 5 6 5 5 5 29 26 55 100 100 100 100 100 100 100 100 100 100 100 100 100 100 100 100 100 100 100 100 100 100 100 100 96 98 100 100 100 94 51
21 5 5 5 5 49 51 100 34 7 23 42 27 83 100 100 100 100 100 100 100 100 100 100 100 100 100 100 100 100 100 100 100 100 100 100 100 100 100 100 100 99 83 60
9 81 56 8 18 30 67 91 63 16 6 22 62 72 66 100 100 100 100 100 100 100 100 100 100 100 100 100 100 100 100 100 100 100 100 100 100 100 100 100 100 100 100 100
99 100 68 52 68 8 36 6 6 4 5 46 60 38 16 42 100 100 100 100 100 100 100 99 100 100 100 100 98 100 100 100 100 100 100 100 100 100 96 82 94 94 100 100

GFSNW_prec_cloud_048.txt.gz
Cloud_Cover
3 10 0 0 0 0 0 0 77 5 33 100 87 11 5 2 0 0 43 100 62 5 7 100 95 98 94 21 8 62 13 45 100 100 100 100 100 94 100 100 87 98 78 44
0 0 0 0 0 0 0 15 4 71 78 98 6 5 5 4 3 0 0 4 65 96 6 32 99 54 94 100 100 100 57 74 99 100 100 100 100 100 100 99 75 68 81 87
0 0 0 3 0 0 0 21 38 74 98 100 46 45 5 4 5 0 0 3 2 4 41 5 5 29 97 88 98 85 81 97 98 77 64 66 100 100 100 100 81 100 58 99
1 1 0 0 0 0 0 6 19 14 95 99 100 100 65 18 16 4 0 0 3 5 5 5 5 5 5 7 13 6 35 96 81 74 18 59 100 71 96 100 100 89 100 96
0 0 0 0 0 0 0 2 4 5 7 67 100 100 100 100 100 77 49 3 5 5 5 12 7 5 5 5 5 5 20 56 83 95 65 6 61 91 100 97 100 100 100 100
0 0 0 0 0 0 0 0 3 18 4 18 69 100 100 100 100 99 83 5 5 43 5 5 5 5 5 5 5 5 5 13 45 93 41 63 56 12 72 99 100 100 100 100
4 1 5 4 2 0 0 1 1 0 3 5 15 40 100 100 100 100 41 8 50 5 5 5 7 6 5 5 5 5 5 5 14 38 8 19 94 14 6 67 36 9 82 100
2 5 5 5 5 0 0 1 0 5 5 3 5 5 73 100 100 100 100 94 96 94 67 10 5 5 5 6 13 5 5 5 26 52 55 92 33 62 32 15 22 26 9 6
5 5 5 6 6 0 2 3 1 5 5 5 5 5 65 92 100 100 100 100 100 95 98 28 5 8 5 7 93 100 100 100 79 94 96 100 90 100 100 91 97 77 5 5
5 6 5 5 5 4 3 5 5 5 5 5 5 29 61 67 80 100 100 100 100 88 68 86 28 5 5 7 12 81 98 100 99 92 97 95 9 53 67 58 52 55 32 12
5 15 5 5 5 5 5 6 22 49 70 9 5 5 18 95 33 97 100 96 100 100 100 95 78 55 21 5 14 5 6 100 81 98 100 50 84 51 40 46 92 36 100 99
20 5 10 74 96 98 5 91 98 70 22 23 5 5 5 66 90 83 99 100 100 100 100 100 100 100 52 76 40 5 8 5 5 87 100 100 98 88 82 97 97 100 100 100
11 5 5 6 18 14 5 11 22 89 98 5 5 8 89 42 58 77 92 100 100 100 100 100 100 100 100 100 100 67 96 45 98 40 53 100 100 100 100 83 64 99 100 100
35 3 36 50 98 51 5 5 27 97 93 25 36 32 99 100 100 100 98 100 100 100 100 100 100 94 99 99 97 45 100 95 82 97 35 5 86 100 100 100 69 65 64 76
4 5 5 63 5 19 5 4 10 5 6 75 39 58 100 100 100 100 100 100 100 100 100 100 100 100 100 100 100 100 100 100 100 100 97 69 11 47 97 100 84 70 61 52
5 5 9 5 5 1 9 8 5 5 5 70 87 35 78 100 100 100 100 100 100 100 100 100 100 100 100 100 98 100 98 100 100 100 96 87 100 91 13 30 100 100 84 62
1 4 7 0 5 5 9 6 5 5 5 10 77 46 40 92 100 100 100 100 100 100 100 100 100 100 100 100 99 100 33 5 13 67 88 78 95 100 100 100 90 49 96 95
4 5 0 2 5 5 9 5 36 56 18 5 31 12 11 42 85 100 100 100 100 100 100 100 100 100 100 100 100 61 5 2 11 91 100 100 94 96 100 100 100 100 39 81
5 5 1 2 3 5 5 77 90 98 51 23 14 94 82 85 93 100 100 100 100 100 100 100 100 92 99 93 99 5 18 44 5 98 100 100 95 100 100 100 100 100 100 98
5 5 5 6 5 5 30 100 96 94 98 26 13 50 49 98 100 100 100 100 100 100 100 99 96 46 96 100 70 30 98 100 100 100 100 100 100 100 100 100 100 100 100 100
92 5 6 5 5 42 85 100 56 65 6 79 62 94 95 72 100 100 100 100 100 100 100 100 72 91 100 100 100 100 100 100 100 100 100 100 100 100 100 100 100 100 100 100
13 30 5 5 21 51 26 84 33 24 5 42 93 41 26 46 97 100 100 100 100 100 100 100 100 100 100 100 100 100 100 100 100 100 100 100 100 100 100 100 100 100 100 100
12 13 10 5 7 5 14 30 2 11 6 13 28 26 9 69 92 100 100 100 100 100 100 100 100 100 100 100 100 100 100 100 100 100 100 100 100 100 100 100 100 100 100 100
5 19 51 26 18 32 6 8 5 5 69 19 43 100 53 40 78 93 100 100 100 100 100 100 100 100 100 100 100 100 100 100 100 100 100 100 100 100 100 100 100 100 100 100
24 6 92 98 90 51 72 98 64 8 32 48 44 81 69 92 86 44 99 100 100 100 100 100 100 100 100 100 100 99 100 100 100 100 100 100 100 100 100 100 100 100 100 100
7 58 100 65 35 7 97 98 72 16 9 20 42 91 98 98 100 100 48 100 100 100 100 100 100 100 100 100 100 83 97 100 100 100 100 100 100 100 100 100 100 100 100 100
99 100 93 94 73 5 33 7 6 5 5 13 60 76 9 85 100 96 31 38 100 100 100 100 100 100 100 100 100 100 100 100 100 100 100 100 100 100 100 100 100 100 100 100